Hyannis, MA

10:39 AM EST on December 18, 2017 (GMT -0500)
Barnstable Municipal-Boardman-Polando Field

Weather History for KHYA - November, 2011

Change the Weather History Date:

Saturday, November 26, 2011

  Actual Average Record
Temperature  
Mean Temperature 51 °F -  
Max Temperature 63 °F 50 °F 68 °F (1979)
Min Temperature 37 °F 30 °F 13 °F (1970)
Degree Days  
Heating Degree Days 14    
Growing Degree Days 1 (Base 50)    
Moisture  
Dew Point 41 °F    
Average Humidity 71    
Maximum Humidity 97    
Minimum Humidity 38    
Precipitation  
Precipitation 0.00 in - - ()
Sea Level Pressure  
Sea Level Pressure 30.14 in    
Wind  
Wind Speed 6 mph (WSW)    
Max Wind Speed 12 mph    
Max Gust Speed -    
Visibility 10 miles    
Events      
Averages and records for this station are not official NWS values.
T = Trace of Precipitation, MM = Missing Value Source: NWS Daily Summary

Daily Weather History Graph

Daily Weather History Graph

Search for Another Location

Airport or City:

Trip Planner

Search our weather history database for the weather conditions in past years. The results will help you decide how hot, cold, wet, or windy it might be!

Date:

Astronomy

Nov. 26, 2011 Rise Set
Actual Time 6:42 AM EST 4:13 PM EST
Civil Twilight 6:12 AM EST 4:44 PM EST
Nautical Twilight 5:37 AM EST 5:18 PM EST
Astronomical Twilight 5:04 AM EST 5:51 PM EST
Moon 8:11 AM EST (11/26) 5:40 PM EST (11/26)
Length of Visible Light 10h 32m
Length of Day
9h 30m
Waxing Crescent, 3% of the Moon is Illuminated
Nov 26
Waxing Crescent
Dec 2
First Quarter
Dec 10
Full
Dec 17
Last Quarter
Dec 24
New

Hourly Weather History & Observations

Time (EST) Temp. Dew Point Humidity Pressure Visibility Wind Dir Wind Speed Gust Speed Precip Events Conditions
12:56 AM 50.0 °F 42.8 °F 76% 30.06 in 10.0 mi WSW 11.5 mph - N/A   Clear
1:56 AM 50.0 °F 43.0 °F 77% 30.07 in 10.0 mi WSW 10.4 mph - N/A   Clear
2:56 AM 50.0 °F 43.0 °F 77% 30.07 in 10.0 mi WSW 9.2 mph - N/A   Clear
3:56 AM 50.0 °F 43.0 °F 77% 30.08 in 10.0 mi WSW 6.9 mph - N/A   Clear
4:56 AM 50.0 °F 41.0 °F 71% 30.08 in 10.0 mi West 10.4 mph - N/A   Clear
5:56 AM 48.0 °F 39.9 °F 74% 30.09 in 10.0 mi WSW 5.8 mph - N/A   Clear
6:56 AM 46.9 °F 39.0 °F 74% 30.12 in 10.0 mi West 5.8 mph - N/A   Clear
7:56 AM 48.0 °F 39.0 °F 71% 30.14 in 10.0 mi Calm Calm - N/A   Clear
8:56 AM 53.1 °F 39.9 °F 61% 30.15 in 10.0 mi WSW 5.8 mph - N/A   Clear
9:56 AM 57.9 °F 37.9 °F 47% 30.17 in 10.0 mi West 6.9 mph - N/A   Clear
10:56 AM 62.6 °F 37.4 °F 39% 30.15 in 10.0 mi West 4.6 mph - N/A   Clear
11:56 AM 63.0 °F 37.0 °F 38% 30.14 in 10.0 mi North 6.9 mph - N/A   Clear
12:56 PM 63.0 °F 37.9 °F 40% 30.12 in 10.0 mi SW 5.8 mph - N/A   Clear
1:56 PM 60.1 °F 42.1 °F 51% 30.13 in 10.0 mi Calm Calm - N/A   Clear
2:56 PM 59.0 °F 43.0 °F 55% 30.14 in 10.0 mi Calm Calm - N/A   Clear
3:56 PM 53.6 °F 42.8 °F 67% 30.16 in 10.0 mi Calm Calm - N/A   Clear
4:56 PM 50.0 °F 43.0 °F 77% 30.17 in 10.0 mi Calm Calm - N/A   Clear
5:56 PM 48.0 °F 43.0 °F 83% 30.19 in 10.0 mi Calm Calm - N/A   Clear
6:56 PM 46.9 °F 42.1 °F 83% 30.19 in 10.0 mi Calm Calm - N/A   Clear
7:56 PM 45.0 °F 42.1 °F 90% 30.20 in 10.0 mi Calm Calm - N/A   Clear
8:56 PM 43.0 °F 41.0 °F 93% 30.21 in 10.0 mi Calm Calm - N/A   Clear
9:56 PM 43.0 °F 42.1 °F 97% 30.20 in 10.0 mi Calm Calm - N/A   Clear
10:56 PM 39.9 °F 39.0 °F 97% 30.21 in 9.0 mi Calm Calm - N/A   Clear
11:56 PM 37.9 °F 36.0 °F 93% 30.21 in 10.0 mi Calm Calm - N/A   Clear